George/Botha, South Africa

1:40 PM SAST on February 28, 2017 (GMT +0200)
George

Weather History for FAGG - November, 2012

Change the Weather History Date:

Friday, November 16, 2012

  Actual Average Record
Temperature  
Mean Temperature 66 °F -  
Max Temperature 73 °F 71 °F 82 °F (1999)
Min Temperature 60 °F 55 °F 32 °F (2004)
Cooling Degree Days 2    
Growing Degree Days 16 (Base 50)    
Moisture  
Dew Point 55 °F    
Average Humidity 71    
Maximum Humidity 94    
Minimum Humidity 38    
Precipitation  
Precipitation 0.00 in - - ()
Sea Level Pressure  
Sea Level Pressure 29.96 in    
Wind  
Wind Speed 5 mph ()    
Max Wind Speed 13 mph    
Max Gust Speed -    
Visibility 7.0 miles    
Events Rain , Hail    
Averages and records for this station are not official NWS values.
T = Trace of Precipitation, MM = Missing Value Source: Averaged Metar Reports

Daily Weather History Graph

Daily Weather History Graph

Search for Another Location

Airport or City:

Trip Planner

Search our weather history database for the weather conditions in past years. The results will help you decide how hot, cold, wet, or windy it might be!

Date:

Astronomy

Nov. 16, 2012 Rise Set
Actual Time 5:17 AM SAST 7:13 PM SAST
Civil Twilight 4:50 AM SAST 7:40 PM SAST
Nautical Twilight 4:16 AM SAST 8:14 PM SAST
Astronomical Twilight 3:40 AM SAST 8:50 PM SAST
Moon 7:35 AM SAST (11/16) 10:05 PM SAST (11/16)
Length of Visible Light 14h 50m
Length of Day
13h 55m
Waxing Crescent, 9% of the Moon is Illuminated
Nov 16
Waxing Crescent
Nov 20
First Quarter
Nov 28
Full
Dec 6
Last Quarter
Dec 13
New

Hourly Weather History & Observations

Time (SAST) Temp. Dew Point Humidity Pressure Visibility Wind Dir Wind Speed Gust Speed Precip Events Conditions
12:00 AM 62.6 °F 59.0 °F 88% 29.98 in 6.2 mi SW 4.6 mph - N/A   Overcast
1:00 AM 62.6 °F 59.0 °F 88% 29.98 in 6.2 mi WSW 3.5 mph - N/A   Overcast
2:00 AM 62 °F 59 °F 85% 29.99 in 4 mi West 4.6 mph - -  
2:00 AM 62.6 °F 59.0 °F 88% 29.98 in 3.1 mi West 4.6 mph - N/A Rain Light Rain
3:00 AM 60.8 °F 59.0 °F 94% 29.98 in 6.2 mi West 5.8 mph - N/A Hail Light Hail
4:00 AM 60.8 °F 57.2 °F 88% 29.95 in 6.2 mi WNW 5.8 mph - N/A   Overcast
5:00 AM 61 °F 57 °F 83% 29.97 in 12 mi NNW 4.6 mph - -   Mostly Cloudy
5:00 AM 60.8 °F 57.2 °F 88% 29.95 in 6.2 mi NNW 4.6 mph - N/A   Mostly Cloudy
6:00 AM 60.8 °F 55.4 °F 82% 29.98 in 6.2 mi NW 5.8 mph - N/A   Mostly Cloudy
7:00 AM 60.8 °F 55.4 °F 82% 29.98 in 6.2 mi WNW 4.6 mph - N/A   Mostly Cloudy
8:00 AM 61 °F 56 °F 79% 30.00 in 5 mi NW 6.9 mph - - Rain Light Drizzle
8:00 AM 60.8 °F 55.4 °F 82% 29.98 in 5.0 mi NW 6.9 mph - N/A   Light Drizzle
9:00 AM 64.4 °F 57.2 °F 77% 29.98 in 6.2 mi West 8.1 mph - N/A   Mostly Cloudy
10:00 AM 66.2 °F 55.4 °F 68% 29.98 in 6.2 mi SW 9.2 mph - N/A   Mostly Cloudy
11:00 AM 67 °F 55 °F 56% 30.00 in 12 mi SSW 9.2 mph - -   Partly Cloudy
11:00 AM 66.2 °F 53.6 °F 64% 29.98 in 6.2 mi SSW 9.2 mph - N/A   Scattered Clouds
12:00 PM 68.0 °F 53.6 °F 60% 29.98 in 6.2 mi South 6.9 mph - N/A   Scattered Clouds
1:00 PM 71.6 °F 53.6 °F 53% 29.95 in 6.2 mi NW 4.6 mph - N/A   Partly Cloudy
2:00 PM 72 °F 53 °F 40% 29.95 in 12 mi SSE 12.7 mph - -   Scattered Clouds
2:00 PM 71.6 °F 53.6 °F 53% 29.95 in 6.2 mi SSE 12.7 mph - N/A   Partly Cloudy
3:00 PM 69.8 °F 53.6 °F 56% 29.92 in 6.2 mi South 9.2 mph - N/A   Partly Cloudy
4:00 PM 69.8 °F 51.8 °F 53% 29.92 in - South 6.9 mph - N/A   Clear
5:00 PM 71 °F 51 °F 38% 29.91 in 12 mi SSE 6.9 mph - -   Clear
5:00 PM 71.6 °F 51.8 °F 50% 29.89 in - South 6.9 mph - N/A   Clear
6:00 PM 68.0 °F 51.8 °F 56% 29.92 in - SSW 10.4 mph - N/A   Clear
7:00 PM 64.4 °F 53.6 °F 68% 29.95 in - SW 4.6 mph - N/A   Clear
8:00 PM 62 °F 54 °F 67% 29.97 in 12 mi West 4.6 mph - -   Scattered Clouds
8:00 PM 62.6 °F 53.6 °F 72% 29.95 in 6.2 mi West 4.6 mph - N/A   Partly Cloudy
9:00 PM 60.8 °F 55.4 °F 82% 29.98 in - NNW 4.6 mph - N/A   Clear
10:00 PM 60.8 °F 53.6 °F 77% 30.01 in 6.2 mi NW 3.5 mph - N/A   Mostly Cloudy
11:00 PM 60.8 °F 53.6 °F 77% 29.98 in 6.2 mi Variable 2.3 mph - N/A   Mostly Cloudy